Date_and_time,latitude,longitude,wind_speed,RelWindDirFrom,WindDirFrom,air_pressure,air_temperature,relative_humidity,Temp,platform_speed_wrt_ground,air_pressure_at_mean_sea_level,platform_orientation
2018-08-07 23:50,51.1523616666667,-96.500575,15.9,20.8,247,977.99,23.3,70,21.12,11.1,1003.23,45.2
2018-08-08 00:00,51.1454,-96.5481316666667,19.1,20.5,238,977.70,23.1,69,21.14,11.0,1002.95,275.8
2018-08-08 00:10,51.1385316666667,-96.5954933333333,21.4,22.8,230,977.37,22.9,69,21.18,11.0,1002.62,275.8
2018-08-08 00:20,51.1538416666667,-96.618665,17.0,29.6,250,977.75,24.9,49,20.86,7.6,1002.94,275.8
2018-08-08 00:30,51.180945,-96.6013033333333,5.7,9.9,262,977.90,26.2,40,20.78,10.5,1003.03,275.8
2018-08-08 00:40,51.1990133333333,-96.607865,9.4,19.9,258,977.57,26.4,38,20.83,6.7,1002.68,275.8
2018-08-08 00:50,51.1972416666667,-96.6166683333333,11.9,19.2,236,977.58,27.1,33,20.78,2.1,1002.65,275.8
2018-08-08 01:00,51.19723,-96.6166766666667,8.9,14.5,230,977.73,26.9,34,21.01,0.0,1002.80,276.2
2018-08-08 01:10,51.1972316666667,-96.616675,8.6,12.8,232,977.71,26.6,35,21.03,0.0,1002.81,276.2
2018-08-08 01:20,51.1972316666667,-96.616675,10.6,15.6,229,977.70,26.4,36,21.04,0.0,1002.83,276.2
2018-08-08 01:30,51.1972633333333,-96.61672,10.4,14.6,231,977.64,26.3,36,21.05,0.0,1002.83,276.2
2018-08-08 01:40,51.19724,-96.61668,10.8,17.3,233,977.63,26.2,37,21.05,0.0,1002.89,276.2
2018-08-08 01:50,51.1972366666667,-96.6166766666667,11.1,15.7,228,977.42,26.1,38,21.01,0.0,1002.68,276.2
2018-08-08 02:00,51.197235,-96.61668,10.7,14.9,225,977.32,25.7,40,21.01,0.0,1002.61,276.2
2018-08-08 02:10,51.197225,-96.6166616666667,10.8,14.9,225,977.31,25.4,41,20.99,0.0,1002.52,276.2
2018-08-08 02:20,51.1972333333333,-96.6166666666667,9.6,13.0,230,977.41,25.3,41,20.95,0.0,1002.58,276.2
2018-08-08 02:30,51.197235,-96.61667,8.3,12.1,231,977.47,25.2,42,20.88,0.0,1002.63,276.2
2018-08-08 02:40,51.197235,-96.61667,8.1,11.0,229,977.49,25.1,42,20.85,0.0,1002.63,276.2
2018-08-08 02:50,51.1972383333333,-96.6166666666667,8.2,10.7,229,977.50,25.0,42,20.82,0.0,1002.66,276.2
2018-08-08 03:00,51.1972383333333,-96.6166666666667,8.9,12.5,230,977.47,25.0,42,20.81,0.0,1002.64,320.4
2018-08-08 03:10,51.1972366666667,-96.6166666666667,8.9,12.4,233,977.43,25.0,42,20.81,0.0,1002.60,320.4
2018-08-08 03:20,51.1972366666667,-96.6166683333333,8.9,14.5,236,977.42,24.9,43,20.80,0.0,1002.60,320.4
2018-08-08 03:30,51.1972366666667,-96.6166683333333,8.6,13.2,237,977.42,24.8,44,20.78,0.0,1002.60,320.4
2018-08-08 03:40,51.1972366666667,-96.61667,7.7,12.4,242,977.44,24.7,44,20.77,0.0,1002.64,320.4
2018-08-08 03:50,51.1972366666667,-96.6166683333333,8.3,12.5,247,977.55,24.5,45,20.74,0.0,1002.77,320.4
2018-08-08 04:00,51.1972366666667,-96.61667,7.6,12.6,256,977.74,24.3,47,20.70,0.0,1002.99,5.6
2018-08-08 04:10,51.19723,-96.616675,6.2,10.5,258,977.87,23.9,51,20.67,0.0,1003.15,5.6
2018-08-08 04:20,51.1972516666667,-96.6166833333333,6.6,11.7,257,977.92,23.6,52,20.67,0.0,1003.21,5.6
2018-08-08 04:30,51.1972433333333,-96.616675,6.0,10.4,260,977.99,23.6,51,20.68,0.0,1003.30,5.6
2018-08-08 04:40,51.1972416666667,-96.6166716666667,6.4,10.6,263,978.09,23.5,52,20.66,0.0,1003.41,5.6
2018-08-08 04:50,51.1972433333333,-96.6166733333333,5.4,10.0,267,978.13,23.4,54,20.64,0.0,1003.45,5.6
2018-08-08 05:00,51.1972416666667,-96.6166716666667,4.9,8.3,270,978.15,23.2,55,20.65,0.0,1003.48,11.0
2018-08-08 05:10,51.1972416666667,-96.6166716666667,4.4,7.6,273,978.15,23.0,56,20.67,0.0,1003.49,11.0
2018-08-08 05:20,51.19724,-96.6166716666667,4.2,8.3,277,978.15,22.9,57,20.67,0.0,1003.50,11.0
2018-08-08 05:30,51.19724,-96.6166716666667,4.1,6.1,284,978.16,22.6,58,20.67,0.0,1003.53,11.0
2018-08-08 05:40,51.19724,-96.6166733333333,3.5,6.1,276,978.15,22.1,62,20.68,0.0,1003.55,11.0
2018-08-08 05:50,51.19724,-96.6166733333333,3.5,6.0,280,978.18,21.9,62,20.70,0.0,1003.59,11.0
2018-08-08 06:00,51.1972383333333,-96.6166633333333,3.9,7.2,284,978.31,21.8,63,20.70,0.0,1003.74,90.0
2018-08-08 06:10,51.19724,-96.6166716666667,3.2,5.4,279,978.38,21.6,67,20.68,0.0,1003.84,90.0
2018-08-08 06:20,51.1972416666667,-96.6166733333333,1.6,4.1,296,978.49,21.3,71,20.68,0.0,1003.97,90.0
2018-08-08 06:30,51.1972416666667,-96.6166733333333,0.9,3.9,322,978.57,21.2,73,20.68,0.0,1004.06,90.0
2018-08-08 06:40,51.1972416666667,-96.616675,3.9,6.9,306,978.56,21.1,72,20.66,0.0,1004.06,90.0
2018-08-08 06:50,51.19724,-96.616675,3.7,6.2,297,978.57,21.1,72,20.67,0.0,1004.08,90.0
2018-08-08 07:00,51.19724,-96.6166766666667,4.0,7.7,305,978.53,21.2,70,20.68,0.0,1004.04,312.5
2018-08-08 07:10,51.1972366666667,-96.6166733333333,3.1,6.4,287,978.50,21.0,71,20.68,0.0,1004.03,312.5
2018-08-08 07:20,51.197235,-96.6166733333333,3.4,6.2,286,978.42,20.9,73,20.68,0.0,1003.97,312.5
2018-08-08 07:30,51.1972366666667,-96.6166766666667,3.2,6.1,292,978.32,20.7,74,20.68,0.0,1003.88,312.5
2018-08-08 07:40,51.1972366666667,-96.6166766666667,4.1,6.8,293,978.30,20.7,73,20.67,0.0,1003.88,312.5
2018-08-08 07:50,51.197235,-96.616675,3.7,6.2,288,978.34,20.6,74,20.66,0.0,1003.93,312.5
2018-08-08 08:00,51.1972366666667,-96.6166616666667,4.3,6.6,283,978.43,20.6,74,20.64,0.0,1004.03,169.0
2018-08-08 08:10,51.1972366666667,-96.6166716666667,4.5,6.1,280,978.51,20.5,74,20.63,0.0,1004.13,169.0
2018-08-08 08:20,51.1972416666667,-96.616675,3.9,5.9,280,978.60,20.5,74,20.62,0.0,1004.23,169.0
2018-08-08 08:30,51.1972416666667,-96.6166716666667,3.4,6.5,282,978.71,20.5,74,20.60,0.0,1004.35,169.0
2018-08-08 08:40,51.19724,-96.6166716666667,3.7,5.9,274,978.75,20.3,75,20.61,0.0,1004.39,169.0
2018-08-08 08:50,51.1972416666667,-96.6166716666667,4.0,6.6,277,978.79,20.2,77,20.61,0.0,1004.43,169.0
2018-08-08 09:00,51.1972416666667,-96.6166716666667,4.3,7.8,279,978.84,20.1,76,20.61,0.0,1004.49,354.4
2018-08-08 09:10,51.19724,-96.61667,5.3,8.5,275,978.94,20.0,76,20.60,0.0,1004.61,354.4
2018-08-08 09:20,51.19724,-96.6166683333333,5.6,8.3,281,978.95,20.0,75,20.59,0.0,1004.63,354.4
2018-08-08 09:30,51.19724,-96.6166683333333,5.2,8.4,281,978.94,19.9,75,20.59,0.0,1004.62,354.4
2018-08-08 09:40,51.1972416666667,-96.6166683333333,4.6,7.2,281,979.03,19.8,76,20.59,0.0,1004.72,354.4
2018-08-08 09:50,51.1972416666667,-96.6166683333333,5.0,7.7,275,978.99,19.7,76,20.59,0.0,1004.68,354.4
2018-08-08 10:00,51.19724,-96.6166683333333,4.1,6.4,274,978.97,19.6,77,20.57,0.0,1004.67,90.0
2018-08-08 10:10,51.1972416666667,-96.61667,4.7,6.5,281,978.95,19.5,76,20.57,0.0,1004.65,90.0
2018-08-08 10:20,51.1972416666667,-96.6166716666667,4.6,6.8,277,978.93,19.4,76,20.57,0.0,1004.64,90.0
2018-08-08 10:30,51.1972416666667,-96.6166716666667,4.2,6.8,283,978.98,19.3,77,20.58,0.0,1004.70,90.0
2018-08-08 10:40,51.1972366666667,-96.61669,4.4,6.5,285,979.08,19.3,78,20.58,0.0,1004.82,90.0
2018-08-08 10:50,51.19724,-96.6166766666667,4.6,7.9,285,979.12,19.2,79,20.57,0.0,1004.86,90.0
2018-08-08 11:00,51.1972183333333,-96.6166766666667,4.5,7.2,295,979.23,19.3,79,20.58,0.0,1004.98,360.0
2018-08-08 11:10,51.1972366666667,-96.6166733333333,5.0,7.9,293,979.35,19.3,78,20.57,0.0,1005.10,360.0
2018-08-08 11:20,51.1972383333333,-96.6166716666667,4.9,7.6,288,979.40,19.2,79,20.56,0.0,1005.16,360.0
2018-08-08 11:30,51.19724,-96.616675,5.1,7.4,291,979.43,19.2,78,20.56,0.0,1005.19,360.0
2018-08-08 11:40,51.19719,-96.6165366666667,5.5,7.8,294,979.55,19.2,79,20.56,0.0,1005.32,360.0
2018-08-08 11:50,51.2108966666667,-96.5999516666667,7.4,14.0,333,979.57,19.3,80,20.54,6.2,1005.35,360.0
2018-08-08 12:00,51.2364266666667,-96.6235016666667,15.2,18.7,311,979.36,19.4,79,20.68,10.6,1005.12,353.7
2018-08-08 12:10,51.2387683333333,-96.6607466666667,15.2,17.9,286,979.42,19.2,79,20.71,8.4,1005.20,353.7
2018-08-08 12:20,51.23048,-96.6840883333333,11.3,17.7,270,979.63,19.1,80,20.60,6.0,1005.43,353.7
2018-08-08 12:30,51.2274233333333,-96.694315,8.1,9.5,271,979.88,18.9,82,20.56,2.6,1005.70,353.7
2018-08-08 12:40,51.2241866666667,-96.70422,8.5,10.1,274,980.10,19.2,79,20.64,2.5,1005.90,353.7
2018-08-08 12:50,51.22072,-96.7143366666667,10.6,12.3,276,980.08,19.2,79,20.69,2.6,1005.88,353.7
2018-08-08 13:00,51.2167133333333,-96.7251083333333,10.8,15.3,285,980.04,19.2,79,20.60,2.8,1005.84,286.0
2018-08-08 13:10,51.216725,-96.7250366666667,7.5,9.3,297,980.10,19.2,79,20.58,0.0,1005.91,286.0
2018-08-08 13:20,51.220285,-96.7203433333333,3.6,10.6,322,980.31,19.4,78,20.58,1.7,1006.11,286.0
2018-08-08 13:30,51.23755,-96.679165,8.7,10.6,22,980.29,19.6,77,20.62,11.2,1006.09,286.0
2018-08-08 13:40,51.25629,-96.641185,8.6,11.6,20,980.30,19.8,78,20.64,10.9,1006.08,286.0
2018-08-08 13:50,51.28378,-96.6205266666667,13.1,15.2,355,980.14,20.0,78,20.61,10.9,1005.91,286.0
2018-08-08 14:00,51.3067083333333,-96.6033683333333,12.3,15.7,352,980.28,20.1,76,20.63,9.1,1006.05,4.4
2018-08-08 14:10,51.3134383333333,-96.5975966666667,4.7,6.7,320,980.73,20.3,76,20.70,2.7,1006.51,4.4
2018-08-08 14:20,51.3209216666667,-96.592085,5.8,8.2,349,980.84,20.7,74,20.69,3.0,1006.61,4.4
2018-08-08 14:30,51.32799,-96.58667,8.0,10.5,325,980.96,20.7,75,20.70,2.8,1006.72,4.4
2018-08-08 14:40,51.33716,-96.5795783333333,10.2,12.0,329,980.90,20.2,78,20.66,3.7,1006.69,4.4
2018-08-08 14:50,51.3374983333333,-96.5789633333333,8.8,9.9,306,980.85,20.0,80,20.64,0.2,1006.64,4.4
2018-08-08 15:00,51.3374766666667,-96.5790483333333,8.6,9.9,305,980.96,20.0,80,20.65,0.0,1006.75,15.4
2018-08-08 15:10,51.3564066666667,-96.588635,14.0,19.0,318,980.78,20.0,82,20.67,7.1,1006.56,15.4
2018-08-08 15:20,51.38544,-96.6029066666667,13.0,16.2,319,980.94,19.9,85,20.77,10.9,1006.73,15.4
2018-08-08 15:30,51.4105233333333,-96.6154583333333,13.5,16.0,308,980.87,20.1,86,20.73,9.5,1006.63,15.4
2018-08-08 15:40,51.4175333333333,-96.6188383333333,8.1,9.2,277,981.24,20.2,87,20.69,2.6,1006.99,15.4
2018-08-08 15:50,51.4260033333333,-96.6219566666667,6.4,8.2,271,981.31,20.2,87,20.70,3.1,1007.07,15.4
2018-08-08 16:00,51.4340916666667,-96.6265916666667,6.7,7.9,292,981.28,20.6,84,20.72,3.1,1007.00,15.8
2018-08-08 16:10,51.4417416666667,-96.6332983333333,6.7,8.5,289,981.27,20.8,83,20.76,3.1,1006.97,15.8
2018-08-08 16:20,51.44166,-96.6329983333333,2.9,4.3,275,981.47,21.2,83,20.82,0.1,1007.15,15.8
2018-08-08 16:30,51.4416283333333,-96.63303,1.8,2.4,304,981.59,21.5,81,20.92,0.0,1007.29,15.8
2018-08-08 16:40,51.4415566666667,-96.6331066666667,2.5,5.4,339,981.72,21.7,79,21.07,0.0,1007.42,15.8
2018-08-08 16:50,51.4415,-96.6332083333333,4.8,9.3,350,981.72,21.6,81,21.16,0.0,1007.43,15.8
2018-08-08 17:00,51.4416416666667,-96.63325,9.4,11.2,359,981.58,21.2,83,21.35,0.1,1007.30,352.2
2018-08-08 17:10,51.4656766666667,-96.6468516666667,21.0,25.9,349,981.01,21.1,84,21.19,9.2,1006.72,352.2
2018-08-08 17:20,51.4936166666667,-96.6622616666667,25.5,27.5,348,980.70,20.8,86,20.98,10.6,1006.41,352.2
2018-08-08 17:30,51.5213816666667,-96.6784166666667,24.1,26.9,349,980.95,20.8,88,20.88,10.6,1006.66,352.2
2018-08-08 17:40,51.549195,-96.6941833333333,24.7,26.7,345,980.86,20.7,88,20.81,10.6,1006.58,352.2
2018-08-08 17:50,51.5770066666667,-96.7097516666667,25.4,27.6,342,980.60,20.8,84,20.75,10.6,1006.29,352.2
2018-08-08 18:00,51.5994816666667,-96.7230233333333,23.5,27.9,342,980.90,20.9,79,20.64,8.6,1006.58,341.2
2018-08-08 18:10,51.5992483333333,-96.7229533333333,13.2,16.2,347,981.87,20.9,81,20.74,0.1,1007.56,341.2
2018-08-08 18:20,51.599245,-96.72292,12.8,15.2,352,981.90,20.9,85,20.81,0.0,1007.58,341.2
2018-08-08 18:30,51.59926,-96.7229416666667,13.0,16.0,351,981.90,21.0,82,20.81,0.0,1007.56,341.2
2018-08-08 18:40,51.5992583333333,-96.7229316666667,13.0,15.7,352,981.91,21.5,76,20.84,0.0,1007.56,341.2
2018-08-08 18:50,51.5992566666667,-96.72294,12.7,15.3,352,981.92,21.6,73,20.90,0.0,1007.58,341.2
2018-08-08 19:00,51.59925,-96.722955,13.0,15.8,353,982.01,21.7,74,20.93,0.0,1007.67,340.1
2018-08-08 19:10,51.599255,-96.72295,12.9,15.1,352,982.13,21.7,75,20.97,0.0,1007.81,340.1
2018-08-08 19:20,51.599255,-96.7229266666667,13.2,15.7,355,982.17,21.3,82,21.01,0.0,1007.87,340.1
2018-08-08 19:30,51.5992616666667,-96.7229266666667,13.3,16.3,350,982.23,21.2,80,21.05,0.0,1007.94,340.1
2018-08-08 19:40,51.61813,-96.7285783333333,20.1,25.3,342,981.79,21.3,80,20.98,6.9,1007.48,340.1
2018-08-08 19:50,51.6444733333333,-96.74976,22.0,23.5,331,981.60,21.2,79,20.87,10.6,1007.29,340.1
2018-08-08 20:00,51.6705966666667,-96.770545,23.6,26.8,328,981.42,21.9,68,20.93,10.5,1007.07,339.6
2018-08-08 20:10,51.69632,-96.7917016666667,23.7,26.2,328,981.47,21.9,68,20.97,10.4,1007.12,339.6
2018-08-08 20:20,51.7211983333333,-96.8145,22.3,24.7,327,981.62,21.2,77,20.93,10.3,1007.29,339.6
2018-08-08 20:30,51.7417416666667,-96.8332016666667,20.9,24.2,325,981.77,20.9,81,20.93,8.5,1007.45,339.6
2018-08-08 20:40,51.7480116666667,-96.8384733333333,15.7,17.6,319,982.46,20.5,84,20.84,2.5,1008.17,339.6
2018-08-08 20:50,51.755725,-96.8450366666667,16.7,18.0,316,982.57,20.4,85,20.91,3.1,1008.28,339.6
2018-08-08 21:00,51.7636,-96.8521816666667,15.3,17.7,318,982.70,20.5,85,20.90,3.3,1008.42,334.0
2018-08-08 21:10,51.7747966666667,-96.86276,15.3,18.5,319,982.69,20.6,85,20.87,4.7,1008.41,334.0
2018-08-08 21:20,51.77458,-96.86255,10.5,12.6,313,983.03,20.7,84,20.80,0.1,1008.76,334.0
2018-08-08 21:30,51.774605,-96.8624883333333,10.9,12.1,313,983.09,20.8,84,20.80,0.0,1008.81,334.0
2018-08-08 21:40,51.7746083333333,-96.862465,10.5,12.0,312,983.13,20.9,84,20.81,0.0,1008.86,334.0
2018-08-08 21:50,51.7746283333333,-96.862465,9.4,10.6,308,983.19,20.9,84,20.82,0.0,1008.88,334.0
2018-08-08 22:00,51.7746266666667,-96.8625483333333,9.2,10.7,319,983.14,21.0,81,20.83,0.0,1008.83,333.8
2018-08-08 22:10,51.7573066666667,-96.84526,2.7,11.7,290,983.37,21.2,81,20.85,7.3,1009.09,333.8
2018-08-08 22:20,51.7288466666667,-96.8209916666667,3.4,4.8,210,983.40,21.3,79,20.99,11.6,1009.13,333.8
2018-08-08 22:30,51.6998483333333,-96.7973983333333,2.0,3.5,244,983.45,21.8,69,20.95,11.7,1009.17,333.8
2018-08-08 22:40,51.6714216666667,-96.7725616666667,1.3,3.2,303,983.56,22.8,61,21.03,11.6,1009.24,333.8
2018-08-08 22:50,51.643645,-96.7835466666667,7.4,15.1,273,983.56,22.8,61,21.04,10.3,1009.25,333.8
2018-08-08 23:00,51.63907,-96.8027566666667,10.1,18.1,316,983.49,23.4,53,21.17,4.6,1009.14,212.4
2018-08-08 23:10,51.63934,-96.8027516666667,5.6,11.4,321,983.56,24.0,51,21.41,0.1,1009.18,212.4
2018-08-08 23:20,51.6393383333333,-96.8027583333333,6.7,13.1,313,983.61,24.0,51,21.24,0.0,1009.22,212.4
2018-08-08 23:30,51.6393366666667,-96.8027583333333,5.4,12.6,324,983.62,24.1,50,21.24,0.0,1009.23,212.4
